Temperature
19 18 18 18 18 17 17 17 17 17 17 17 17 17 17 17 17 17 16 16 16 16 16 16 16 15 15 15 15 15 15 16 16 16 16 17 17 17 18 18 18 18 18
19 18 18 18 18 17 17 17 17 17 17 17 17 17 17 17 17 17 16 16 16 16 15 15 15 15 15 15 15 15 15 15 15 15 16 16 17 17 18 18 18 18 18
20 20 19 19 18 18 17 17 17 16 16 16 16 16 16 16 16 16 16 16 15 15 15 15 15 15 15 15 15 15 15 15 15 15 16 16 17 18 18 18 18 18 18
21 21 20 19 19 18 18 17 17 16 15 15 15 15 15 15 15 15 15 15 15 15 15 15 14 14 14 14 14 14 14 15 15 15 16 16 16 17 18 18 18 18 18
22 21 20 20 19 19 18 18 17 16 15 15 14 14 14 14 14 14 14 14 14 14 15 14 14 14 14 14 14 14 14 14 15 15 15 16 16 17 17 17 18 18 18
22 21 20 20 19 19 18 18 17 16 15 14 14 13 13 13 13 13 13 13 14 14 14 14 14 14 14 14 14 14 14 14 14 14 15 15 16 16 17 17 18 18 18
22 21 21 20 19 19 18 17 16 15 15 14 13 13 13 12 12 12 13 13 13 14 14 14 14 13 13 13 13 13 14 14 14 14 14 15 15 16 16 17 18 18 18
22 22 21 20 19 18 18 17 16 15 14 14 13 12 12 12 12 12 12 12 12 12 13 13 13 13 13 13 13 13 13 13 13 13 14 14 14 15 16 16 17 17 18
22 21 20 19 19 18 17 16 15 14 14 13 13 12 12 12 11 11 11 11 11 12 12 12 12 12 12 12 12 12 12 13 13 13 13 14 14 14 15 15 16 16 17
22 21 20 19 18 17 16 15 15 14 13 13 12 12 12 11 11 10 10 10 10 10 11 11 11 11 11 11 12 12 12 12 12 13 13 13 14 14 14 15 15 16 16
21 20 19 18 17 16 15 15 14 13 13 12 12 11 11 10 10 10 10 10 10 10 10 10 10 10 11 11 11 11 11 11 12 12 12 12 13 13 14 14 15 15 16
20 19 18 17 16 15 15 14 13 12 12 12 11 11 10 10 10 9 9 9 9 9 9 9 10 10 10 10 11 11 11 11 11 11 12 12 12 12 13 13 14 14 15
19 18 17 16 15 14 14 13 12 12 11 11 11 10 10 10 9 9 9 9 9 9 9 9 9 9 9 10 10 10 11 11 11 11 11 11 12 12 12 12 13 14 14
18 17 16 15 14 14 13 12 12 11 11 10 10 10 9 9 9 9 9 9 8 8 9 9 9 9 9 9 9 10 10 10 11 11 11 11 11 11 12 12 12 13 13
18 17 16 15 14 13 12 12 11 11 10 10 9 9 9 9 9 8 8 8 8 8 8 8 8 8 8 9 9 9 10 10 10 10 11 11 11 11 11 11 11 12 12
17 16 15 14 13 13 12 11 11 10 10 9 9 9 9 8 8 8 8 8 8 8 8 8 8 8 8 8 9 9 9 9 10 10 10 10 11 11 11 11 11 11 12
16 15 14 13 13 12 12 11 11 10 10 9 9 9 8 8 8 8 8 8 8 8 8 8 8 8 8 8 8 8 9 9 9 9 10 10 11 11 11 11 11 11 11
15 14 14 13 13 12 11 11 10 10 9 9 9 8 8 8 8 8 8 8 8 8 8 8 7 7 7 8 8 8 8 8 9 9 9 10 10 10 11 10 10 11 11
15 14 13 13 12 11 11 10 10 9 9 9 8 8 8 8 8 8 8 8 8 7 7 7 7 7 7 7 7 7 8 8 8 9 9 9 10 10 10 10 10 10 10
14 13 13 12 12 11 10 10 9 9 9 8 8 8 8 8 8 8 8 8 8 7 7 7 7 7 7 7 7 7 7 7 8 8 9 9 9 9 10 10 10 10 10
14 13 12 12 11 11 10 10 9 9 8 8 8 8 8 8 8 8 8 8 8 7 7 7 7 7 7 7 7 7 7 7 7 8 8 9 9 9 10 10 10 10 10
14 13 12 11 11 10 10 9 9 9 8 8 8 8 8 8 8 8 8 8 8 7 7 7 7 7 7 7 7 7 7 7 7 7 8 8 9 9 9 9 9 9 10
13 12 12 11 11 10 10 9 9 8 8 8 8 8 8 8 8 8 8 8 7 7 7 7 7 7 7 7 7 7 7 7 7 7 8 8 8 9 9 9 9 9 9
13 12 11 11 10 10 10 9 9 8 8 8 8 8 8 8 8 8 8 7 7 7 7 7 6 6 6 7 7 7 7 7 7 7 7 7 8 8 9 9 9 9 9
13 12 11 11 10 10 9 9 9 8 8 8 8 8 8 8 8 8 8 8 7 7 7 6 6 6 6 6 6 6 6 6 7 7 7 7 8 8 8 8 9 9 9
12 12 11 10 10 10 9 9 9 8 8 8 8 8 8 8 8 8 8 8 7 7 7 6 6 6 6 6 6 6 6 6 7 7 7 7 7 8 8 8 9 9 9
Wind_Speed
8 7 6 6 6 6 5 4 5 5 4 4 5 4 4 4 3 2 1 1 3 4 4 4 4 4 4 5 6 7 7 7 5 5 6 8 10 11 10 10 9 11 11
8 7 6 5 4 4 3 3 4 5 5 4 4 3 4 4 4 1 0 1 1 3 4 3 4 4 4 5 4 4 4 5 5 4 4 5 7 9 12 8 9 8 7
8 6 5 4 4 3 2 3 3 3 4 6 5 6 5 5 4 3 2 1 1 3 3 4 4 4 4 4 4 3 4 4 4 4 4 3 3 3 6 9 8 8 6
6 5 4 3 2 2 2 3 2 1 3 5 6 8 8 7 7 5 4 5 4 4 4 4 3 4 4 3 4 3 3 3 4 3 4 5 3 2 1 4 6 8 6
4 3 1 1 1 2 2 1 2 1 2 4 7 8 8 8 8 8 9 8 7 7 6 5 3 3 3 3 4 4 4 3 4 4 3 4 4 4 2 4 4 4 5
2 2 1 1 2 3 3 3 4 4 4 5 7 8 9 8 10 10 11 9 7 6 5 5 4 4 3 2 3 4 5 4 5 4 4 3 3 3 4 4 5 6 5
1 1 2 3 3 4 4 4 5 5 5 6 7 8 8 9 10 11 9 9 7 7 6 5 2 3 3 3 3 3 4 4 4 5 4 4 4 5 5 3 4 4 4
3 4 5 4 5 6 5 5 6 6 6 6 7 7 9 9 8 8 9 9 9 9 9 7 6 5 5 5 4 3 4 3 3 4 4 3 4 5 5 4 3 3 3
7 7 8 8 8 7 7 7 7 7 7 7 8 9 9 8 9 9 10 9 8 10 9 9 8 7 7 6 6 5 5 4 4 4 4 4 5 5 5 5 3 3 3
9 10 10 10 9 8 7 7 7 8 7 8 8 11 8 8 9 9 9 9 10 10 10 10 10 9 8 8 7 6 6 6 5 4 5 5 5 5 4 5 5 3 2
11 11 10 10 9 9 9 8 8 8 7 8 7 8 7 8 9 9 10 9 10 10 10 10 10 10 10 9 9 9 8 8 7 7 6 6 5 5 4 4 4 4 3
10 11 11 10 10 10 11 10 10 9 8 8 8 8 8 8 9 11 10 10 10 10 11 10 10 11 12 10 10 11 11 10 9 9 8 8 6 6 5 5 5 5 4
11 11 10 10 10 10 10 11 11 11 11 10 9 9 10 10 10 10 10 10 10 10 11 11 11 11 11 11 11 11 11 11 10 10 10 9 8 8 6 6 6 5 6
10 11 10 9 9 10 10 11 12 12 12 11 11 11 10 11 11 11 11 11 11 11 11 11 11 12 12 12 12 12 11 11 11 11 10 10 10 9 8 7 6 6 6
11 11 11 10 10 10 10 11 11 11 11 12 12 12 11 11 11 11 11 11 12 14 11 11 12 11 12 13 13 12 14 12 11 11 11 11 12 12 10 8 6 6 6
12 13 12 12 11 11 11 11 11 11 11 12 13 12 12 12 12 12 12 12 11 11 11 12 13 13 14 15 13 10 10 10 10 11 11 11 11 12 14 12 10 8 7
12 12 13 12 10 10 10 11 11 12 12 12 13 13 13 13 13 15 14 13 12 12 12 12 12 13 13 16 16 14 10 10 10 10 10 12 13 13 11 12 12 10 10
12 12 12 13 12 11 11 11 13 13 13 13 13 13 14 14 13 13 14 13 11 11 12 12 13 12 14 16 16 15 13 11 11 11 10 11 10 9 11 11 11 10 10
11 11 12 13 12 12 12 12 13 13 13 14 14 15 15 15 15 15 14 13 11 12 12 12 12 13 13 15 15 14 11 11 12 12 12 11 11 11 11 10 9 9 8
10 11 12 12 12 12 12 13 14 14 14 14 15 15 15 15 15 15 13 12 10 11 12 12 11 12 12 13 14 14 10 10 10 9 10 12 11 11 12 9 8 8 7
11 11 11 11 11 11 11 12 14 14 14 15 15 15 14 14 14 12 11 11 11 11 11 11 11 10 10 10 13 15 10 9 8 8 8 8 11 13 14 11 7 6 5
11 12 10 10 10 11 11 13 13 14 14 15 16 16 15 15 13 11 11 11 10 11 10 9 9 7 7 7 9 13 13 8 6 5 5 5 11 13 14 10 7 7 5
11 11 11 11 11 11 11 13 13 14 15 15 16 16 16 14 12 11 11 10 8 7 8 7 7 6 5 4 6 10 11 9 4 2 1 4 10 10 9 10 9 8 4
10 10 12 12 12 12 12 11 12 13 14 15 15 15 14 14 11 9 8 7 7 7 7 7 7 6 5 3 1 4 6 7 6 4 3 5 8 8 7 8 7 6 6
9 10 11 12 13 12 12 12 12 13 15 15 15 14 13 12 10 9 6 6 5 4 5 6 6 6 5 4 4 1 3 5 6 6 5 4 5 5 6 7 8 8 7
9 10 11 12 13 13 13 12 12 13 14 14 14 12 12 10 9 9 8 5 5 5 5 5 5 4 4 5 3 1 0 2 5 5 5 6 7 8 9 9 9 9 8
Wind_Direction
104 100 95 87 82 77 72 61 55 43 13 23 355 347 343 328 308 278 80 356 320 319 295 298 305 291 285 276 265 260 252 245 237 246 256 252 237 227 222 216 219 219 217
118 120 125 118 105 100 103 102 66 39 16 17 325 298 311 297 278 296 342 243 315 318 306 317 296 294 295 290 288 271 259 250 220 216 236 249 238 227 218 205 211 224 218
133 138 135 133 132 126 110 77 63 30 15 346 321 332 320 302 311 333 307 264 294 283 289 292 288 291 286 287 283 270 262 263 255 227 230 238 246 226 217 206 204 201 215
132 133 139 134 143 167 173 143 135 39 353 332 332 331 313 309 315 316 320 325 301 270 253 256 270 286 288 286 287 272 261 260 267 265 250 254 280 257 239 214 198 185 193
117 108 79 93 306 298 304 183 146 97 355 340 320 315 311 318 318 320 312 303 287 262 240 232 228 253 275 291 294 291 274 265 257 259 269 266 270 255 228 222 199 184 183
140 154 244 244 280 304 330 3 45 31 7 341 325 317 314 312 307 300 293 289 280 270 250 228 210 220 244 268 280 285 279 272 262 251 262 265 256 262 251 226 204 193 194
284 291 301 323 330 329 354 6 12 1 349 332 319 316 313 307 294 288 295 306 308 308 304 297 252 239 234 240 253 264 278 276 261 249 251 265 272 274 271 261 245 211 189
12 351 345 357 350 346 355 355 352 336 322 312 308 308 299 293 293 307 320 309 299 294 292 297 286 265 246 245 236 246 254 260 255 259 257 265 272 276 282 276 268 254 204
351 343 353 349 344 353 356 349 338 329 324 317 307 289 283 301 314 312 298 291 292 296 304 317 304 287 267 251 240 240 245 247 244 251 255 254 266 274 278 282 279 248 229
349 355 352 342 349 347 345 343 339 333 325 313 305 308 321 314 300 297 295 294 290 286 284 281 281 277 268 254 239 235 232 231 235 232 244 253 259 266 273 280 284 278 255
351 346 344 347 345 341 339 340 336 329 321 315 310 307 302 300 299 295 291 291 293 293 291 286 283 280 274 265 251 240 232 227 230 230 226 229 239 251 265 270 273 276 273
349 346 343 345 341 336 335 333 329 321 317 317 313 307 302 300 298 298 296 295 293 290 288 284 281 277 274 266 257 249 242 228 224 222 222 222 224 227 240 249 251 257 255
350 344 345 343 338 338 334 327 323 321 319 314 310 309 306 304 300 297 295 292 290 286 284 280 278 275 273 271 268 259 251 239 230 222 219 216 212 218 220 228 235 241 243
349 345 343 338 338 332 329 326 322 320 316 316 314 308 304 302 300 297 295 292 290 288 283 279 276 272 270 267 264 262 256 247 238 231 223 216 210 211 208 217 222 224 230
344 342 337 334 331 328 326 321 319 316 316 313 308 307 305 302 298 294 293 290 287 287 285 284 281 275 271 263 254 250 255 249 242 236 230 223 213 210 204 209 204 207 215
340 335 332 330 328 325 322 322 319 319 316 310 309 307 302 299 297 295 291 289 287 287 284 281 279 275 272 271 269 260 261 259 249 239 231 232 218 210 203 201 193 192 203
335 334 332 327 323 322 326 323 321 319 315 311 308 305 303 301 299 299 299 295 293 291 287 282 277 272 267 266 264 260 257 258 251 242 233 234 228 202 199 200 198 201 206
338 335 327 324 324 329 327 325 321 320 317 314 311 310 306 305 303 300 297 294 292 290 287 282 277 273 268 258 249 246 247 252 247 238 228 228 240 221 198 195 201 205 205
340 330 324 323 325 325 326 325 320 319 317 316 315 313 310 308 305 302 300 297 294 291 287 282 277 272 267 257 246 235 244 242 241 236 227 220 222 221 203 197 199 201 206
334 328 326 325 326 328 327 321 318 319 319 319 316 313 310 307 304 301 299 299 295 292 291 287 282 275 268 258 241 223 237 237 236 231 228 220 217 208 201 200 201 203 203
332 332 330 328 328 326 324 319 320 322 323 319 314 310 307 304 299 300 301 300 298 295 292 291 287 279 271 262 239 219 226 230 227 227 222 214 195 194 199 203 203 198 193
335 336 332 329 327 327 326 323 324 326 322 318 315 313 309 306 307 306 303 302 301 300 298 298 297 289 276 262 237 215 217 230 228 226 224 203 180 186 190 196 187 164 175
335 333 330 327 328 330 331 325 326 326 323 320 317 314 312 308 306 306 306 307 307 308 308 307 308 306 298 265 226 210 209 211 223 228 207 171 169 177 191 203 184 171 194
331 332 329 328 328 329 329 327 327 327 323 320 317 316 314 312 313 312 308 309 312 316 318 321 323 322 324 323 246 200 197 193 203 204 153 146 157 176 201 189 191 202 214
329 330 329 328 327 329 328 330 331 328 324 321 319 318 315 314 315 314 311 307 309 305 306 319 326 332 336 346 343 297 200 192 190 174 164 168 169 192 207 198 192 203 208
329 329 329 327 327 326 327 330 333 330 325 321 321 320 318 320 320 320 318 288 268 263 260 276 298 316 334 332 339 7 112 146 156 165 178 195 201 200 206 203 197 202 205
Height
1510 1511 1511 1511 1512 1511 1512 1512 1512 1512 1512 1512 1512 1512 1511 1511 1510 1509 1507 1505 1504 1502 1501 1499 1497 1496 1494 1493 1492 1491 1492 1492 1494 1496 1496 1498 1499 1500 1502 1504 1506 1509 1511
1510 1511 1512 1513 1513 1513 1513 1513 1512 1512 1512 1512 1511 1511 1510 1509 1508 1507 1505 1503 1500 1499 1498 1496 1494 1492 1490 1489 1488 1487 1487 1487 1489 1491 1493 1492 1493 1493 1496 1499 1501 1504 1506
1509 1511 1512 1513 1513 1514 1513 1513 1512 1511 1511 1510 1510 1509 1508 1507 1506 1504 1502 1500 1498 1496 1494 1492 1490 1489 1487 1485 1485 1484 1483 1484 1486 1488 1489 1489 1488 1488 1491 1493 1496 1499 1502
1508 1510 1512 1513 1513 1513 1513 1512 1511 1510 1509 1508 1507 1506 1505 1503 1502 1500 1498 1496 1494 1492 1490 1489 1487 1485 1484 1483 1482 1481 1481 1481 1482 1483 1485 1486 1487 1488 1487 1490 1492 1495 1498
1507 1509 1511 1512 1512 1512 1512 1511 1509 1507 1506 1505 1504 1503 1501 1499 1497 1495 1493 1491 1489 1488 1486 1484 1483 1481 1480 1479 1479 1478 1478 1478 1479 1480 1481 1482 1483 1484 1486 1488 1490 1492 1494
1507 1508 1509 1510 1510 1510 1509 1509 1507 1505 1503 1502 1501 1499 1497 1494 1492 1490 1488 1486 1485 1484 1482 1481 1479 1477 1476 1476 1475 1475 1475 1474 1474 1475 1477 1479 1480 1481 1484 1485 1487 1489 1491
1505 1506 1507 1507 1507 1507 1506 1505 1504 1502 1500 1499 1497 1495 1493 1490 1488 1485 1483 1482 1480 1479 1478 1477 1475 1474 1473 1472 1471 1471 1471 1470 1470 1470 1472 1474 1476 1479 1481 1483 1484 1486 1488
1503 1504 1505 1505 1505 1505 1504 1502 1500 1499 1497 1495 1493 1491 1488 1486 1483 1481 1479 1477 1475 1474 1473 1472 1471 1470 1469 1468 1467 1467 1466 1466 1466 1466 1468 1469 1471 1474 1477 1479 1482 1483 1484
1501 1503 1503 1503 1503 1502 1501 1499 1497 1495 1493 1491 1488 1486 1484 1481 1478 1476 1473 1472 1470 1469 1468 1466 1465 1464 1464 1463 1463 1462 1462 1462 1462 1462 1463 1465 1467 1470 1472 1474 1477 1480 1481
1500 1501 1502 1502 1501 1499 1498 1496 1494 1491 1489 1486 1484 1482 1479 1476 1473 1470 1468 1466 1464 1462 1461 1460 1459 1458 1458 1457 1457 1457 1457 1457 1458 1458 1458 1460 1462 1464 1467 1469 1472 1475 1478
1500 1500 1500 1499 1498 1497 1495 1493 1490 1488 1485 1482 1479 1476 1473 1470 1467 1465 1462 1460 1458 1456 1454 1453 1452 1452 1451 1451 1452 1452 1452 1452 1453 1453 1454 1455 1457 1458 1461 1464 1467 1470 1473
1499 1499 1498 1497 1496 1494 1492 1489 1486 1484 1481 1477 1474 1471 1468 1465 1462 1459 1456 1454 1451 1449 1448 1446 1445 1444 1444 1445 1445 1445 1446 1446 1447 1448 1449 1450 1451 1453 1455 1458 1461 1464 1468
1498 1497 1496 1495 1493 1491 1488 1486 1483 1480 1476 1473 1469 1466 1463 1459 1456 1453 1450 1447 1445 1443 1441 1439 1438 1437 1437 1437 1437 1438 1439 1440 1441 1442 1443 1445 1446 1447 1449 1451 1454 1458 1462
1496 1495 1494 1492 1490 1488 1485 1482 1479 1476 1472 1468 1465 1461 1457 1454 1450 1447 1444 1441 1439 1436 1434 1432 1431 1430 1429 1429 1429 1430 1431 1432 1434 1436 1437 1439 1440 1442 1443 1445 1448 1452 1456
1494 1493 1492 1489 1487 1484 1481 1478 1475 1471 1468 1464 1460 1456 1452 1448 1445 1441 1438 1435 1432 1430 1427 1425 1423 1422 1421 1421 1421 1422 1423 1424 1426 1428 1430 1433 1434 1436 1438 1440 1442 1445 1449
1492 1491 1489 1486 1484 1481 1478 1474 1471 1467 1463 1459 1455 1451 1447 1443 1439 1436 1432 1429 1426 1423 1420 1418 1416 1414 1414 1414 1414 1415 1415 1416 1418 1420 1423 1426 1429 1430 1433 1435 1437 1440 1443
1490 1488 1486 1483 1480 1477 1474 1470 1467 1463 1458 1454 1450 1446 1442 1437 1433 1430 1426 1422 1419 1416 1413 1410 1407 1405 1404 1404 1404 1405 1407 1408 1410 1412 1416 1420 1423 1425 1427 1429 1431 1434 1437
1488 1486 1483 1480 1477 1474 1470 1466 1463 1458 1454 1449 1445 1440 1436 1432 1427 1423 1419 1416 1412 1409 1405 1402 1399 1397 1395 1395 1395 1396 1398 1399 1401 1404 1408 1412 1416 1419 1421 1424 1426 1428 1431
1486 1483 1480 1477 1474 1470 1466 1462 1458 1454 1449 1445 1440 1435 1430 1426 1421 1417 1413 1409 1405 1401 1398 1394 1391 1388 1386 1386 1386 1387 1388 1390 1393 1397 1401 1406 1410 1414 1417 1419 1421 1423 1426
1483 1480 1477 1474 1470 1467 1462 1458 1454 1450 1445 1440 1435 1429 1425 1420 1415 1411 1407 1403 1399 1395 1391 1387 1384 1381 1378 1378 1378 1379 1381 1383 1386 1390 1395 1399 1404 1408 1411 1415 1417 1420 1422
1480 1477 1474 1471 1467 1463 1459 1454 1450 1446 1441 1435 1429 1424 1419 1414 1410 1405 1401 1397 1393 1389 1385 1381 1377 1374 1372 1370 1370 1371 1373 1376 1380 1384 1388 1393 1398 1402 1406 1410 1414 1416 1419
1477 1474 1471 1467 1464 1460 1455 1451 1446 1441 1436 1430 1425 1419 1414 1409 1405 1400 1396 1392 1388 1384 1380 1376 1372 1369 1367 1365 1364 1365 1368 1372 1375 1379 1383 1388 1392 1397 1402 1406 1410 1413 1416
1474 1471 1468 1464 1460 1457 1452 1447 1442 1437 1431 1426 1420 1414 1409 1405 1401 1396 1392 1388 1384 1380 1376 1372 1369 1366 1363 1361 1361 1362 1364 1368 1372 1376 1380 1384 1388 1392 1397 1402 1405 1409 1412
1471 1468 1465 1461 1457 1453 1449 1444 1439 1433 1428 1422 1416 1410 1405 1401 1397 1392 1388 1384 1380 1376 1373 1370 1367 1364 1361 1359 1359 1360 1362 1365 1369 1373 1377 1381 1385 1389 1394 1398 1401 1405 1408
1468 1465 1462 1458 1454 1450 1446 1441 1436 1430 1424 1419 1413 1407 1402 1398 1393 1389 1385 1381 1377 1374 1371 1367 1365 1363 1360 1359 1358 1359 1361 1363 1367 1371 1375 1378 1382 1386 1390 1394 1398 1401 1404
1465 1462 1459 1455 1451 1447 1443 1438 1433 1427 1422 1416 1410 1405 1400 1396 1391 1387 1383 1378 1375 1372 1368 1366 1364 1362 1360 1359 1359 1359 1361 1363 1366 1370 1373 1376 1380 1383 1387 1391 1394 1397 1400